Hourly Data Report for July 31, 2006

TORONTO CITY
ONTARIO

43°40'00.000" N
79°24'00.000" W
112.50 m
6158355
71508
XTO

Download Data

Hourly Data (July 2006)
Hourly Data Report for July 31, 2006
TIME
LST
Temp Definition
°C
Dew Point Definition
°C
Rel Hum Definition
%
Precip. Amount Definition
mm

Wind Dir Definition
10's deg

Wind Spd Definition
km/h
Visibility Definition
km
Stn Press Definition
kPa
Hmdx Definition


Wind Chill Definition


Weather Definition


00:00 22.6 21.6 94   LegendMM LegendMM   99.65 32   LegendNANA
01:00 22.7 22.0 96   LegendMM LegendMM   99.59 32   LegendNANA
02:00 22.7 21.7 94   LegendMM LegendMM   99.60 32   LegendNANA
03:00 22.3 21.5 95   LegendMM LegendMM   99.57 31   LegendNANA
04:00 22.2 20.8 92   LegendMM LegendMM   99.58 30   LegendNANA
05:00 21.9 20.5 92   LegendMM LegendMM   99.62 30   LegendNANA
06:00 21.9 20.6 92   LegendMM LegendMM   99.68 30   LegendNANA
07:00 22.7 21.0 90   LegendMM LegendMM   99.70 31   LegendNANA
08:00 24.3 21.9 86   LegendMM LegendMM   99.70 34   LegendNANA
09:00 25.7 23.0 85   LegendMM LegendMM   99.73 36   LegendNANA
10:00 26.7 23.3 82   LegendMM LegendMM   99.73 37   LegendNANA
11:00 27.8 24.0 80   LegendMM LegendMM   99.70 39   LegendNANA
12:00 29.2 24.7 77   LegendMM LegendMM   99.68 41   LegendNANA
13:00 29.7 23.8 71   LegendMM LegendMM   99.60 41   LegendNANA
14:00 30.4 24.2 70   LegendMM LegendMM   99.56 42   LegendNANA
15:00 30.8 24.1 68   LegendMM LegendMM   99.48 42   LegendNANA
16:00 31.2 24.7 68   LegendMM LegendMM   99.46 43   LegendNANA
17:00 30.5 24.5 70   LegendMM LegendMM   99.51 42   LegendNANA
18:00 29.8 25.0 76   LegendMM LegendMM   99.49 42   LegendNANA
19:00 28.8 24.6 78   LegendMM LegendMM   99.49 41   LegendNANA
20:00 28.2 24.6 81   LegendMM LegendMM   99.52 40   LegendNANA
21:00 29.5 26.6 84   LegendMM LegendMM   99.58 44   LegendNANA
22:00 29.5 26.3 83   LegendMM LegendMM   99.60 43   LegendNANA
23:00 28.8 25.6 83   LegendMM LegendMM   99.61 42   LegendNANA

Notes on Data Quality.

Legend

  • E = Estimated
  • M = Missing
  • NA = Not Available*
  • [empty] = Indicates an unobserved value
Date modified: